Location: Newark
(37.3186°N, 13.6631°E)
Time: 01:24:05
(UTC+00:00)

Envisat - Visible Passes

Search period start: 23 November 2019 00:00
Search period end: 03 December 2019 00:00
Orbit: 764 x 766 km, 98.1° (Epoch: 22 November)

Date Brightness Start Highest point End Pass type
(mag) Time Alt. Az. Time Alt. Az. Time Alt. Az.
23 Nov 5.1 05:15:12 10° NNE 05:19:46 33° E 05:24:19 10° SSE visible
23 Nov 3.5 16:27:42 10° SE 16:32:17 35° ENE 16:36:52 10° N visible
23 Nov 5.3 18:07:18 10° SSW 18:11:20 24° W 18:15:23 10° NW visible
24 Nov 6.1 04:40:03 10° ENE 04:42:43 14° E 04:45:22 10° ESE visible
24 Nov 3.7 17:29:26 10° S 17:34:24 55° W 17:39:24 10° NNW visible
25 Nov 2.9 16:52:39 10° SSE 16:57:39 64° ENE 17:02:40 10° N visible
25 Nov 6.1 18:34:48 10° WSW 18:37:04 13° W 18:39:20 10° WNW visible
26 Nov 5.5 05:04:13 10° NE 05:08:26 26° E 05:12:37 10° SSE visible
26 Nov 3.8 16:16:49 10° SE 16:21:05 28° ENE 16:25:22 10° N visible
26 Nov 4.9 17:55:34 10° SSW 17:59:59 30° W 18:04:27 10° NW visible
27 Nov 6.5 04:30:14 10° ENE 04:31:19 11° E 04:32:24 10° ESE visible
27 Nov 3.2 17:18:03 10° S 17:23:06 72° WSW 17:28:11 10° NNW visible
28 Nov 3.2 16:41:32 10° SSE 16:46:25 49° ENE 16:51:19 10° N visible
28 Nov 5.8 18:22:27 10° SW 18:25:41 17° W 18:28:54 10° NW visible
29 Nov 5.9 04:53:21 10° NE 04:57:05 20° E 05:00:46 10° SE visible
29 Nov 4.4 17:43:57 10° SSW 17:48:39 39° W 17:53:24 10° NNW visible
30 Nov 2.9 17:06:45 10° SSE 17:11:50 89° ENE 17:16:56 10° NNW visible
01 Dec 4.8 05:18:03 10° NNE 05:22:44 36° E 05:27:23 10° SSE visible
01 Dec 3.4 16:30:31 10° SE 16:35:11 39° ENE 16:39:53 10° N visible
01 Dec 5.4 18:10:28 10° SW 18:14:18 22° W 18:18:10 10° NW visible
02 Dec 6.0 04:42:41 10° NE 04:45:42 16° E 04:48:43 10° SE visible
02 Dec 3.9 17:32:26 10° S 17:37:21 50° W 17:42:17 10° NNW visible
